Weather History for Cleveland, OH

Change the Weather History Date:

Saturday, October 1, 2011

  Actual Average Record
Temperature  
Mean Temperature 49 °F 59 °F  
Max Temperature 51 °F 68 °F 87 °F (1952)
Min Temperature 46 °F 50 °F 34 °F (1960)
Degree Days  
Heating Degree Days 16 7  
Month to date heating degree days 16 7  
Since 1 July heating degree days 92 110  
Cooling Degree Days 0 1  
Month to date cooling degree days 0 1  
Year to date cooling degree days 991 805  
Growing Degree Days 0 (Base 50)    
Moisture  
Dew Point 45 °F    
Average Humidity 77    
Maximum Humidity 93    
Minimum Humidity 61    
Precipitation  
Precipitation 0.70 in 0.11 in 0.70 in (2011)
Month to date precipitation 0.70 0.11  
Year to date precipitation 50.67 29.46  
Snow  
Snow 0.00 in 0.00 in - ()
Month to date snowfall 0.0 0.0  
Since 1 July snowfall 0.0 0.0  
Since 1 September snowfall 0.0 0.0  
Snow Depth 0.00 in    
Sea Level Pressure  
Sea Level Pressure 29.96 in    
Wind  
Wind Speed 16 mph (North)    
Max Wind Speed 25 mph    
Max Gust Speed 32 mph    
Visibility 6 miles    
Events Rain    
T = Trace of Precipitation, MM = Missing Value Source: NWS Daily Summary

Daily Weather History Graph

Daily Weather History Graph

Search for Another Location

Airport:

Trip Planner

Search our weather history database for the weather conditions in past years. The results will help you decide how hot, cold, wet, or windy it might be!

Date:

Astronomy

Oct. 01, 2011 Rise Set
Actual Time 7:23 AM EDT 7:09 PM EDT
Civil Twilight 6:56 AM EDT 7:37 PM EDT
Nautical Twilight 6:24 AM EDT 8:09 PM EDT
Astronomical Twilight 5:51 AM EDT 8:41 PM EDT
Moon 12:32 PM EDT (10/1) 10:01 PM EDT (10/1)
Length of Visible Light 12h 40m
Length of Day
11h 45m
Waxing Crescent, 24% of the Moon is Illuminated
Oct 1
Waxing Crescent
Oct 3
First Quarter
Oct 11
Full
Oct 19
Last Quarter
Oct 26
New

Hourly Weather History & Observations

Time (EDT) Temp. Windchill Dew Point Humidity Pressure Visibility Wind Dir Wind Speed Gust Speed Precip Events Conditions
12:07 AM 44.6 °F 38.1 °F 42.8 °F 93% 29.86 in 4.0 mi WNW 13.8 mph - 0.04 in Rain Rain
12:15 AM 44.6 °F 38.1 °F 42.8 °F 93% 29.85 in 5.0 mi WNW 13.8 mph 21.9 mph 0.05 in Rain Rain
12:43 AM 44.6 °F 39.7 °F 44.6 °F 100% 29.85 in 5.0 mi WNW 9.2 mph - 0.10 in Rain Rain
12:51 AM 46.0 °F 41.0 °F 44.1 °F 93% 29.86 in 9.0 mi WNW 10.4 mph - 0.10 in Rain Light Rain
1:02 AM 46.4 °F 41.1 °F 44.6 °F 93% 29.85 in 7.0 mi NW 11.5 mph 21.9 mph 0.01 in Rain Light Rain
1:10 AM 46.4 °F 41.5 °F 44.6 °F 93% 29.85 in 9.0 mi WNW 10.4 mph - 0.02 in Rain Light Rain
1:51 AM 46.9 °F - 44.1 °F 90% 29.84 in 7.0 mi NNW 11.5 mph - 0.05 in Rain Light Rain
2:11 AM 46.4 °F 41.5 °F 44.6 °F 93% 29.84 in 4.0 mi NW 10.4 mph - 0.02 in Rain Light Rain
2:51 AM 46.9 °F - 45.0 °F 93% 29.85 in 7.0 mi NNW 16.1 mph 19.6 mph 0.06 in Rain Light Rain
3:51 AM 48.0 °F - 46.0 °F 93% 29.85 in 10.0 mi NNW 10.4 mph - 0.03 in   Overcast
4:13 AM 48.2 °F - 46.4 °F 93% 29.84 in 10.0 mi NNW 8.1 mph - 0.01 in   Overcast
4:43 AM 48.2 °F - 46.4 °F 93% 29.85 in 4.0 mi NNW 13.8 mph 20.7 mph 0.02 in Rain Light Rain
4:51 AM 48.9 °F - 46.0 °F 90% 29.86 in 4.0 mi NNW 13.8 mph - 0.02 in Rain Rain
4:58 AM 48.2 °F - 46.4 °F 93% 29.85 in 4.0 mi NNW 13.8 mph 19.6 mph 0.02 in Rain Rain
5:25 AM 48.2 °F - 46.4 °F 93% 29.85 in 4.0 mi North 13.8 mph - 0.06 in Rain Rain
5:48 AM 48.2 °F - 46.4 °F 93% 29.86 in 4.0 mi NNW 13.8 mph 28.8 mph 0.12 in Rain Rain
5:51 AM 48.9 °F - 46.9 °F 93% 29.87 in 4.0 mi North 20.7 mph 28.8 mph 0.13 in Rain Rain
6:24 AM 48.2 °F - 46.4 °F 93% 29.87 in 4.0 mi North 19.6 mph 27.6 mph 0.05 in Rain Rain
6:42 AM 50.0 °F - 46.4 °F 87% 29.89 in 7.0 mi North 17.3 mph 26.5 mph 0.07 in Rain Rain
6:51 AM 50.0 °F - 48.0 °F 93% 29.91 in 9.0 mi North 13.8 mph - 0.09 in Rain Light Rain
7:08 AM 50.0 °F - 46.4 °F 87% 29.91 in 6.0 mi NNE 17.3 mph 26.5 mph 0.02 in Rain Rain
7:34 AM 50.0 °F - 46.4 °F 87% 29.92 in 5.0 mi North 13.8 mph 24.2 mph 0.05 in Rain Rain
7:41 AM 50.0 °F - 46.4 °F 87% 29.92 in 5.0 mi North 18.4 mph 21.9 mph 0.07 in Rain Rain
7:51 AM 50.0 °F - 46.9 °F 89% 29.94 in 6.0 mi North 18.4 mph 24.2 mph 0.07 in Rain Rain
8:32 AM 48.2 °F - 46.4 °F 93% 29.95 in 2.0 mi North 20.7 mph 26.5 mph 0.03 in   Overcast
8:37 AM 48.2 °F - 46.4 °F 93% 29.95 in 3.0 mi North 15.0 mph 26.5 mph 0.04 in Rain Light Rain
8:41 AM 48.2 °F - 46.4 °F 93% 29.95 in 2.5 mi North 15.0 mph 25.3 mph 0.04 in Rain Light Rain
8:51 AM 48.9 °F - 46.9 °F 93% 29.96 in 3.0 mi North 17.3 mph 25.3 mph 0.05 in   Overcast
8:55 AM 48.2 °F - 46.4 °F 93% 29.96 in 3.0 mi North 16.1 mph - N/A   Overcast
9:05 AM 48.2 °F - 46.4 °F 93% 29.96 in 3.0 mi North 18.4 mph 27.6 mph N/A Rain Light Rain
9:10 AM 48.2 °F - 46.4 °F 93% 29.96 in 4.0 mi North 17.3 mph 27.6 mph 0.01 in Rain Light Rain
9:23 AM 48.2 °F - 46.4 °F 93% 29.97 in 3.0 mi North 20.7 mph 26.5 mph 0.02 in Rain Light Rain
9:34 AM 48.2 °F - 46.4 °F 93% 29.97 in 2.5 mi North 19.6 mph 27.6 mph 0.03 in Rain Light Rain
9:46 AM 48.2 °F - 46.4 °F 93% 29.98 in 1.8 mi North 20.7 mph 29.9 mph 0.06 in Rain Rain
9:51 AM 48.9 °F - 46.9 °F 93% 29.99 in 1.5 mi North 17.3 mph 29.9 mph 0.07 in Rain Rain
10:36 AM 48.2 °F - 46.4 °F 93% 30.00 in 2.0 mi North 20.7 mph 27.6 mph 0.06 in Rain Light Rain
10:51 AM 48.9 °F - 46.9 °F 93% 30.02 in 2.5 mi NNE 18.4 mph 25.3 mph 0.08 in Rain Light Rain
11:04 AM 48.2 °F - 46.4 °F 93% 30.02 in 2.0 mi NNE 15.0 mph 24.2 mph 0.01 in Rain Light Rain
11:29 AM 48.2 °F - 46.4 °F 93% 30.03 in 3.0 mi NNE 15.0 mph - 0.03 in Rain Light Rain
11:45 AM 48.2 °F - 46.4 °F 93% 30.04 in 2.0 mi North 16.1 mph - 0.05 in Rain Light Rain
11:51 AM 48.0 °F - 46.0 °F 93% 30.05 in 2.0 mi North 18.4 mph - 0.06 in Rain Light Rain
11:59 AM 48.2 °F - 46.4 °F 93% 30.04 in 9.0 mi North 18.4 mph 31.1 mph 0.00 in Rain Light Rain
12:47 PM 48.2 °F - 44.6 °F 87% 30.05 in 10.0 mi North 18.4 mph 28.8 mph 0.00 in   Overcast
12:51 PM 48.9 °F - 44.1 °F 83% 30.06 in 10.0 mi North 18.4 mph 28.8 mph 0.00 in   Overcast
1:51 PM 48.9 °F - 44.1 °F 83% 30.06 in 10.0 mi North 13.8 mph 20.7 mph N/A   Overcast
2:51 PM 50.0 °F - 42.1 °F 74% 30.06 in 10.0 mi North 16.1 mph - N/A   Overcast
3:51 PM 50.0 °F - 42.1 °F 74% 30.07 in 10.0 mi North 12.7 mph 24.2 mph N/A   Overcast
4:27 PM 51.8 °F - 42.8 °F 71% 30.06 in 10.0 mi North 15.0 mph - N/A   Overcast
4:36 PM 51.8 °F - 42.8 °F 71% 30.06 in 10.0 mi North 19.6 mph 25.3 mph N/A   Overcast
4:51 PM 51.1 °F - 41.0 °F 68% 30.07 in 10.0 mi NNW 16.1 mph 24.2 mph N/A   Overcast
5:12 PM 50.0 °F - 41.0 °F 71% 30.07 in 10.0 mi NNW 15.0 mph 23.0 mph N/A   Overcast
5:51 PM 50.0 °F - 39.9 °F 68% 30.08 in 10.0 mi North 16.1 mph - N/A   Overcast
6:51 PM 50.0 °F - 37.9 °F 63% 30.10 in 10.0 mi North 15.0 mph 23.0 mph N/A   Overcast
7:51 PM 50.0 °F - 39.0 °F 66% 30.10 in 10.0 mi NNW 18.4 mph 28.8 mph N/A   Overcast
8:51 PM 50.0 °F - 39.0 °F 66% 30.11 in 10.0 mi North 20.7 mph 26.5 mph N/A   Overcast
9:51 PM 48.9 °F - 39.0 °F 69% 30.12 in 10.0 mi North 16.1 mph 25.3 mph N/A   Overcast
10:51 PM 50.0 °F - 37.9 °F 63% 30.10 in 10.0 mi North 17.3 mph 24.2 mph N/A   Overcast
11:51 PM 48.9 °F - 35.1 °F 59% 30.11 in 10.0 mi North 18.4 mph 25.3 mph N/A   Overcast